• In Romania
  • List of Countries
  • For 7 days
  • Water Temperature
  • Satellite Maps
  • Weather Map
  • Weather Widgets
  • user-avatar
    Login

    Hourly Weather Nakhchivan

    Today, 26 June, Monday

    Time Temperature Precipitation Wind Pressure Humidity
    00:00 +24°C° 0 mm 2 mps 687 mmHg 52%
    01:00 +23°C° 0 mm 2 mps 688 mmHg 53%
    02:00 +23°C° 0 mm 2 mps 688 mmHg 55%
    03:00 +21°C° 0 mm 2 mps 687 mmHg 55%
    04:00 +23°C° 0 mm 2 mps 688 mmHg 53%
    05:00 +23°C° 0 mm 2 mps 688 mmHg 51%
    06:00 +24°C° 0 mm 1 mps 689 mmHg 49%
    07:00 +26°C° 0 mm 2 mps 689 mmHg 44%
    08:00 +28°C° 0 mm 2 mps 689 mmHg 38%
    09:00 +30°C° 0 mm 2 mps 689 mmHg 32%
    10:00 +31°C° 0 mm 2 mps 689 mmHg 29%
    11:00 +32°C° 0 mm 2 mps 689 mmHg 26%
    12:00 +34°C° 0 mm 3 mps 689 mmHg 23%
    13:00 +35°C° 0 mm 3 mps 689 mmHg 23%
    14:00 +36°C° 0 mm 3 mps 689 mmHg 22%
    15:00 +36°C° 0 mm 3 mps 688 mmHg 22%
    16:00 +35°C° 0 mm 3 mps 689 mmHg 24%
    17:00 +35°C° 0 mm 4 mps 689 mmHg 26%
    18:00 +34°C° 0 mm 4 mps 689 mmHg 28%
    19:00 +31°C° 0 mm 3 mps 689 mmHg 35%
    20:00 +29°C° 0 mm 3 mps 689 mmHg 42%
    21:00 +26°C° 0 mm 2 mps 689 mmHg 49%
    22:00 +26°C° 0 mm 2 mps 689 mmHg 53%
    23:00 +25°C° 0 mm 2 mps 689 mmHg 56%

    Tomorrow, 27 June, Tuesday

    Time Temperature Precipitation Wind Pressure Humidity
    00:00 +24°C° 0 mm 2 mps 689 mmHg 59%
    01:00 +24°C° 0 mm 2 mps 689 mmHg 61%
    02:00 +23°C° 0 mm 1 mps 689 mmHg 62%
    03:00 +23°C° 0 mm 1 mps 689 mmHg 64%
    04:00 +23°C° 0 mm 1 mps 689 mmHg 61%
    05:00 +24°C° 0 mm 1 mps 689 mmHg 58%
    06:00 +25°C° 0 mm 1 mps 689 mmHg 55%
    07:00 +27°C° 0 mm 1 mps 689 mmHg 48%
    08:00 +29°C° 0 mm 1 mps 689 mmHg 41%
    09:00 +31°C° 0 mm 1 mps 689 mmHg 34%
    10:00 +32°C° 0 mm 1 mps 689 mmHg 31%
    11:00 +35°C° 0 mm 2 mps 689 mmHg 27%
    12:00 +36°C° 0 mm 2 mps 688 mmHg 23%
    13:00 +37°C° 0 mm 2 mps 688 mmHg 22%
    14:00 +38°C° 0 mm 2 mps 688 mmHg 20%
    15:00 +39°C° 0 mm 2 mps 687 mmHg 18%
    16:00 +39°C° 0 mm 2 mps 687 mmHg 19%
    17:00 +38°C° 0 mm 2 mps 687 mmHg 20%
    18:00 +38°C° 0 mm 3 mps 687 mmHg 21%
    19:00 +35°C° 0 mm 2 mps 686 mmHg 27%
    20:00 +32°C° 0 mm 2 mps 686 mmHg 33%
    21:00 +29°C° 0 mm 2 mps 686 mmHg 39%
    22:00 +29°C° 0 mm 2 mps 686 mmHg 41%
    23:00 +28°C° 0 mm 2 mps 686 mmHg 43%

    Day after tomorrow, 28 June, Wednesday

    Time Temperature Precipitation Wind Pressure Humidity
    00:00 +27°C° 0 mm 2 mps 686 mmHg 46%
    01:00 +27°C° 0 mm 2 mps 686 mmHg 47%
    02:00 +26°C° 0 mm 1 mps 686 mmHg 47%
    03:00 +26°C° 0 mm 1 mps 686 mmHg 48%
    04:00 +26°C° 0 mm 1 mps 686 mmHg 47%
    05:00 +27°C° 0 mm 1 mps 686 mmHg 45%
    06:00 +28°C° 0 mm 1 mps 686 mmHg 43%
    07:00 +30°C° 0 mm 1 mps 687 mmHg 38%
    08:00 +32°C° 0 mm 1 mps 687 mmHg 33%
    09:00 +34°C° 0 mm 1 mps 687 mmHg 28%
    10:00 +35°C° 0 mm 1 mps 687 mmHg 25%
    11:00 +37°C° 0 mm 1 mps 686 mmHg 22%
    12:00 +39°C° 0 mm 1 mps 686 mmHg 20%
    13:00 +40°C° 0 mm 2 mps 686 mmHg 19%
    14:00 +40°C° 0 mm 2 mps 685 mmHg 17%
    15:00 +41°C° 0 mm 2 mps 685 mmHg 16%
    16:00 +40°C° 0 mm 3 mps 685 mmHg 18%
    17:00 +39°C° 0 mm 3 mps 684 mmHg 19%
    18:00 +40°C° 0 mm 4 mps 684 mmHg 21%
    19:00 +36°C° 0 mm 3 mps 684 mmHg 27%
    20:00 +34°C° 0 mm 3 mps 685 mmHg 33%
    21:00 +31°C° 0 mm 2 mps 685 mmHg 39%
    22:00 +30°C° 0 mm 2 mps 685 mmHg 42%
    23:00 +29°C° 0 mm 2 mps 685 mmHg 46%

    29 June, Thursday

    Time Temperature Precipitation Wind Pressure Humidity
    00:00 +28°C° 0 mm 2 mps 685 mmHg 49%
    01:00 +27°C° 0 mm 2 mps 685 mmHg 51%
    02:00 +27°C° 0 mm 2 mps 685 mmHg 53%
    03:00 +26°C° 0 mm 2 mps 685 mmHg 55%
    04:00 +26°C° 0 mm 2 mps 685 mmHg 54%
    05:00 +27°C° 0 mm 1 mps 685 mmHg 53%
    06:00 +27°C° 0 mm 1 mps 686 mmHg 51%
    07:00 +29°C° 0 mm 1 mps 686 mmHg 45%
    08:00 +31°C° 0 mm 1 mps 686 mmHg 39%
    09:00 +33°C° 0 mm 1 mps 686 mmHg 32%
    10:00 +35°C° 0 mm 2 mps 686 mmHg 29%
    11:00 +36°C° 0 mm 2 mps 686 mmHg 26%
    12:00 +38°C° 0 mm 2 mps 686 mmHg 22%
    13:00 +38°C° 0 mm 2 mps 685 mmHg 21%
    14:00 +39°C° 0 mm 3 mps 685 mmHg 20%
    15:00 +40°C° 0 mm 3 mps 684 mmHg 18%
    16:00 +40°C° 0 mm 4 mps 684 mmHg 20%
    17:00 +38°C° 0 mm 4 mps 684 mmHg 22%
    18:00 +37°C° 0 mm 4 mps 684 mmHg 23%
    19:00 +35°C° 0 mm 4 mps 684 mmHg 28%
    20:00 +31°C° 0 mm 3 mps 684 mmHg 33%
    21:00 +29°C° 0 mm 2 mps 685 mmHg 38%
    22:00 +28°C° 0.1 mm 2 mps 685 mmHg 39%
    23:00 +27°C° 0.1 mm 2 mps 685 mmHg 41%

    30 June, Friday

    Time Temperature Precipitation Wind Pressure Humidity
    00:00 +26°C° 0.1 mm 2 mps 685 mmHg 43%
    01:00 +26°C° 0.1 mm 2 mps 685 mmHg 44%
    02:00 +25°C° 0.1 mm 2 mps 685 mmHg 45%
    03:00 +24°C° 0.1 mm 2 mps 685 mmHg 46%
    04:00 +25°C° 0 mm 2 mps 685 mmHg 44%
    05:00 +25°C° 0 mm 2 mps 685 mmHg 42%
    06:00 +26°C° 0 mm 2 mps 685 mmHg 41%
    07:00 +27°C° 0 mm 2 mps 686 mmHg 36%
    08:00 +29°C° 0 mm 2 mps 686 mmHg 31%
    09:00 +31°C° 0 mm 2 mps 686 mmHg 26%
    10:00 +32°C° 0 mm 2 mps 686 mmHg 24%
    11:00 +35°C° 0 mm 2 mps 686 mmHg 21%
    12:00 +36°C° 0 mm 3 mps 685 mmHg 18%
    13:00 +37°C° 0 mm 3 mps 685 mmHg 17%
    14:00 +37°C° 0 mm 4 mps 685 mmHg 16%
    15:00 +38°C° 0 mm 4 mps 685 mmHg 15%
    16:00 +37°C° 0 mm 5 mps 685 mmHg 16%
    17:00 +36°C° 0 mm 5 mps 685 mmHg 17%
    18:00 +35°C° 0 mm 5 mps 685 mmHg 18%
    19:00 +33°C° 0 mm 4 mps 685 mmHg 21%
    20:00 +30°C° 0 mm 4 mps 686 mmHg 24%
    21:00 +28°C° 0 mm 3 mps 686 mmHg 27%
    22:00 +27°C° 0 mm 3 mps 686 mmHg 29%
    23:00 +27°C° 0 mm 3 mps 686 mmHg 31%

    1 July, Saturday

    Time Temperature Precipitation Wind Pressure Humidity
    00:00 +26°C° 0 mm 2 mps 687 mmHg 33%
    01:00 +25°C° 0 mm 2 mps 687 mmHg 34%
    02:00 +25°C° 0 mm 2 mps 687 mmHg 35%
    03:00 +24°C° 0 mm 2 mps 687 mmHg 36%
    04:00 +24°C° 0 mm 2 mps 687 mmHg 36%
    05:00 +24°C° 0 mm 2 mps 687 mmHg 35%
    06:00 +24°C° 0 mm 2 mps 688 mmHg 35%
    07:00 +26°C° 0 mm 2 mps 688 mmHg 31%
    08:00 +28°C° 0 mm 2 mps 688 mmHg 26%
    09:00 +30°C° 0 mm 2 mps 689 mmHg 22%
    10:00 +31°C° 0 mm 3 mps 688 mmHg 20%
    11:00 +34°C° 0 mm 3 mps 688 mmHg 18%
    12:00 +35°C° 0 mm 4 mps 688 mmHg 16%
    13:00 +36°C° 0 mm 4 mps 688 mmHg 16%
    14:00 +36°C° 0 mm 5 mps 688 mmHg 16%
    15:00 +37°C° 0 mm 5 mps 687 mmHg 16%
    16:00 +36°C° 0 mm 5 mps 687 mmHg 18%
    17:00 +35°C° 0 mm 5 mps 687 mmHg 20%
    18:00 +34°C° 0 mm 6 mps 687 mmHg 22%
    19:00 +32°C° 0 mm 4 mps 688 mmHg 26%
    20:00 +29°C° 0 mm 3 mps 688 mmHg 29%
    21:00 +27°C° 0 mm 2 mps 688 mmHg 33%
    22:00 +26°C° 0 mm 2 mps 688 mmHg 34%
    23:00 +25°C° 0 mm 2 mps 688 mmHg 36%
    Show more